This is the latest recevied weather packets stored in our database for station/object N5KJT. If no packets are shown the sender has not sent any weather packets the latest 10 day(s).
| Time | Temp. | Humidity | Pressure | Rain* | Wind** | Luminosity | Snow |
|---|---|---|---|---|---|---|---|
| 1788031516 | 32.78° C | 26% | 1025.6 hPa | 0 mm | - | 1216 W/m² | - |
| 1788031216 | 32.78° C | 25% | 1025.7 hPa | 0 mm | - | 1211 W/m² | - |
| 1788030916 | 32.78° C | 25% | 1025.8 hPa | 0 mm | - | 1212 W/m² | - |
| 1788030616 | 32.78° C | 25% | 1025.9 hPa | 0 mm | - | 1211 W/m² | - |
| 1788030316 | 32.78° C | 26% | 1026 hPa | 0 mm | - | 1208 W/m² | - |
| 1788030016 | 32.78° C | 26% | 1026.1 hPa | 0 mm | - | 1207 W/m² | - |
| 1788029716 | 32.22° C | 26% | 1026.2 hPa | 0 mm | - | 1207 W/m² | - |
| 1788029416 | 32.22° C | 25% | 1026.2 hPa | 0 mm | - | 1199 W/m² | - |
| 1788029116 | 32.78° C | 25% | 1026.4 hPa | 0 mm | - | 1202 W/m² | - |
| 1788028816 | 32.22° C | 26% | 1026.4 hPa | 0 mm | - | 1202 W/m² | - |
| 1788028516 | 32.22° C | 26% | 1026.6 hPa | 0 mm | - | 1197 W/m² | - |
| 1788028216 | 32.22° C | 27% | 1026.6 hPa | 0 mm | - | 1186 W/m² | - |
| 1788027916 | 31.67° C | 28% | 1026.6 hPa | 0 mm | - | 1166 W/m² | - |
| 1788027616 | 31.67° C | 28% | 1026.8 hPa | 0 mm | - | 1116 W/m² | - |
| 1788027316 | 31.11° C | 28% | 1026.9 hPa | 0 mm | - | 816 W/m² | - |
| 1788027016 | 31.11° C | 28% | 1027 hPa | 0 mm | - | 764 W/m² | - |
| 1788026717 | 31.11° C | 28% | 1027.1 hPa | 0 mm | - | 849 W/m² | - |
| 1788026416 | 31.11° C | 29% | 1027.3 hPa | 0 mm | - | 858 W/m² | - |
| 1788026116 | 31.11° C | 29% | 1027.4 hPa | 0 mm | - | 930 W/m² | - |
| 1788025816 | 30.56° C | 29% | 1027.5 hPa | 0 mm | - | 1021 W/m² | - |
| 1788025516 | 31.11° C | 29% | 1027.6 hPa | 0 mm | - | 1075 W/m² | - |
| 1788025216 | 30.56° C | 31% | 1027.5 hPa | 0 mm | - | 1079 W/m² | - |
| 1788024916 | 30.56° C | 30% | 1027.4 hPa | 0 mm | - | 1069 W/m² | - |
| 1788024616 | 30.56° C | 30% | 1027.5 hPa | 0 mm | - | 1055 W/m² | - |
| 1788024316 | 30.56° C | 31% | 1027.6 hPa | 0 mm | - | 1044 W/m² | - |
* Rain latest hour (hover to see other rain measurements)
** Current wind speed in m/s (hover to see current wind gust speed)